Wetterdaten: Freitag, 16.01.2015
Datum Zeit Auen-Temp. Temp. -10 cm Luftfeuchte Luftfeuchte Luftdruck Regen Wind Richtung Richtung Taupunkt Windchill Windben
16.01.2015 00:00 -0,6 C 1,3 C 73 % 74 % 1011,1 hPa 0,0 l/m 0,2 km/h (0 Bft) W-NW 292 -4,8 C -1,4 C 0,0 km/h (0 Bft)
16.01.2015 00:05 -0,8 C 1,3 C 73 % 74 % 1011,1 hPa 0,0 l/m 0,0 km/h (0 Bft) SW 225 -5,0 C -1,8 C 0,0 km/h (0 Bft)
16.01.2015 00:10 -0,3 C 1,3 C 75 % 75 % 1011,1 hPa 0,0 l/m 0,2 km/h (0 Bft) S 180 -4,2 C -1,9 C 0,0 km/h (0 Bft)
16.01.2015 00:15 -0,6 C 1,3 C 75 % 75 % 1011,1 hPa 0,0 l/m 0,2 km/h (0 Bft) SW 225 -4,5 C -1,9 C 0,0 km/h (0 Bft)
16.01.2015 00:20 -1,0 C 1,3 C 75 % 75 % 1011,2 hPa 0,0 l/m 0,0 km/h (0 Bft) SO 135 -4,9 C -2,2 C 0,0 km/h (0 Bft)
16.01.2015 00:25 -1,0 C 1,3 C 75 % 75 % 1011,2 hPa 0,0 l/m 0,0 km/h (0 Bft) SO 135 -4,9 C -2,4 C 0,0 km/h (0 Bft)
16.01.2015 00:30 -0,6 C 1,3 C 78 % 76 % 1011,2 hPa 0,0 l/m 0,3 km/h (0 Bft) NO 45 -3,9 C -2,4 C 5,5 km/h (1 Bft)
16.01.2015 00:35 -0,7 C 1,3 C 78 % 76 % 1011,2 hPa 0,0 l/m 0,5 km/h (0 Bft) W 270 -4,0 C -2,3 C 6,0 km/h (2 Bft)
16.01.2015 00:40 -1,0 C 1,3 C 78 % 77 % 1011,1 hPa 0,0 l/m 0,5 km/h (0 Bft) SW 225 -4,3 C -2,3 C 0,0 km/h (0 Bft)
16.01.2015 00:45 -0,9 C 1,3 C 78 % 77 % 1011,1 hPa 0,0 l/m 0,5 km/h (0 Bft) S 180 -4,2 C -2,4 C 0,0 km/h (0 Bft)
16.01.2015 00:50 -0,6 C 1,3 C 78 % 77 % 1011,1 hPa 0,0 l/m 0,0 km/h (0 Bft) W 270 -3,9 C -2,1 C 0,0 km/h (0 Bft)
16.01.2015 00:55 -1,3 C 1,3 C 78 % 77 % 1011,1 hPa 0,0 l/m 0,0 km/h (0 Bft) W-NW 292 -4,6 C -2,2 C 0,0 km/h (0 Bft)
16.01.2015 01:00 -1,7 C 1,3 C 78 % 77 % 1011,2 hPa 0,0 l/m 0,2 km/h (0 Bft) W-NW 292 -5,0 C -2,7 C 0,0 km/h (0 Bft)
16.01.2015 01:05 -1,6 C 1,3 C 78 % 77 % 1011,2 hPa 0,0 l/m 0,3 km/h (0 Bft) W 270 -4,9 C -2,9 C 3,5 km/h (1 Bft)
16.01.2015 01:10 -1,4 C 1,3 C 79 % 78 % 1011,2 hPa 0,0 l/m 0,2 km/h (0 Bft) N-NO 22 -4,6 C -2,9 C 0,0 km/h (0 Bft)
16.01.2015 01:15 -1,4 C 1,3 C 79 % 78 % 1011,2 hPa 0,0 l/m 0,3 km/h (0 Bft) N-NW 337 -4,6 C -2,8 C 0,0 km/h (0 Bft)
16.01.2015 01:20 -1,5 C 1,3 C 79 % 78 % 1011,1 hPa 0,0 l/m 0,0 km/h (0 Bft) NO 45 -4,7 C -2,9 C 0,0 km/h (0 Bft)
16.01.2015 01:25 -1,0 C 1,3 C 80 % 78 % 1011,1 hPa 0,0 l/m 0,0 km/h (0 Bft) NO 45 -4,0 C -2,8 C 0,0 km/h (0 Bft)
16.01.2015 01:30 -1,0 C 1,3 C 80 % 78 % 1011,1 hPa 0,0 l/m 0,0 km/h (0 Bft) NO 45 -4,0 C -2,8 C 2,6 km/h (1 Bft)
16.01.2015 01:35 -0,9 C 1,3 C 80 % 78 % 1011,1 hPa 0,0 l/m 0,5 km/h (0 Bft) O-SO 112 -3,9 C -2,5 C 1,9 km/h (1 Bft)
16.01.2015 01:40 -0,4 C 1,3 C 79 % 78 % 1011,2 hPa 0,0 l/m 1,4 km/h (1 Bft) NO 45 -3,6 C -2,1 C 1,9 km/h (1 Bft)
16.01.2015 01:45 -0,2 C 1,3 C 79 % 78 % 1011,2 hPa 0,0 l/m 1,6 km/h (1 Bft) SO 135 -3,4 C -1,9 C 3,4 km/h (1 Bft)
16.01.2015 01:50 0,7 C 1,3 C 78 % 78 % 1011,2 hPa 0,0 l/m 1,0 km/h (0 Bft) W-NW 292 -2,7 C -1,0 C 1,8 km/h (1 Bft)
16.01.2015 01:55 -0,1 C 1,3 C 76 % 77 % 1011,2 hPa 0,0 l/m 0,6 km/h (0 Bft) S-SO 157 -3,8 C -0,9 C 0,0 km/h (0 Bft)
16.01.2015 02:00 -0,5 C 1,3 C 76 % 77 % 1011,1 hPa 0,0 l/m 0,5 km/h (0 Bft) W-NW 292 -4,2 C -1,0 C 0,0 km/h (0 Bft)
16.01.2015 02:05 -1,3 C 1,3 C 75 % 77 % 1011,1 hPa 0,0 l/m 0,5 km/h (0 Bft) W-SW 247 -5,1 C -1,6 C 0,0 km/h (0 Bft)
16.01.2015 02:10 -0,8 C 1,3 C 76 % 77 % 1011,1 hPa 0,0 l/m 0,0 km/h (0 Bft) N-NW 337 -4,5 C -1,8 C 0,0 km/h (0 Bft)
16.01.2015 02:15 -0,7 C 1,3 C 76 % 77 % 1011,1 hPa 0,0 l/m 0,3 km/h (0 Bft) SO 135 -4,4 C -1,9 C 2,7 km/h (1 Bft)
16.01.2015 02:20 -0,3 C 1,3 C 74 % 77 % 1011,0 hPa 0,0 l/m 1,3 km/h (1 Bft) W 270 -4,4 C -1,1 C 0,0 km/h (0 Bft)
16.01.2015 02:25 -0,8 C 1,3 C 74 % 77 % 1011,0 hPa 0,0 l/m 1,1 km/h (1 Bft) SW 225 -4,8 C -1,5 C 0,0 km/h (0 Bft)
16.01.2015 02:30 -0,9 C 1,3 C 75 % 77 % 1011,0 hPa 0,0 l/m 0,3 km/h (0 Bft) W 270 -4,8 C -1,9 C 3,4 km/h (1 Bft)
16.01.2015 02:35 -1,2 C 1,3 C 76 % 77 % 1011,0 hPa 0,0 l/m 0,5 km/h (0 Bft) S 180 -4,9 C -2,1 C 0,0 km/h (0 Bft)
16.01.2015 02:40 -0,5 C 1,3 C 77 % 77 % 1010,6 hPa 0,0 l/m 0,5 km/h (0 Bft) W-NW 292 -4,0 C -2,0 C 6,8 km/h (2 Bft)
16.01.2015 02:45 -1,2 C 1,3 C 76 % 77 % 1010,6 hPa 0,0 l/m 0,6 km/h (0 Bft) W-SW 247 -4,9 C -2,0 C 0,0 km/h (0 Bft)
16.01.2015 02:50 -0,8 C 1,3 C 76 % 77 % 1010,6 hPa 0,0 l/m 0,8 km/h (0 Bft) O-SO 112 -4,5 C -2,4 C 0,0 km/h (0 Bft)
16.01.2015 02:55 -0,1 C 1,3 C 77 % 78 % 1010,6 hPa 0,0 l/m 0,5 km/h (0 Bft) S-SW 202 -3,6 C -2,1 C 4,5 km/h (1 Bft)
16.01.2015 03:00 0,1 C 1,3 C 75 % 77 % 1010,6 hPa 0,0 l/m 1,1 km/h (1 Bft) S 180 -3,8 C -1,6 C 2,1 km/h (1 Bft)
16.01.2015 03:05 -0,4 C 1,3 C 75 % 77 % 1010,6 hPa 0,0 l/m 1,4 km/h (1 Bft) O-NO 67 -4,3 C -1,3 C 2,1 km/h (1 Bft)
16.01.2015 03:10 0,1 C 1,3 C 74 % 77 % 1010,6 hPa 0,0 l/m 1,3 km/h (1 Bft) N-NO 22 -4,0 C -1,3 C 1,9 km/h (1 Bft)
16.01.2015 03:15 -0,4 C 1,3 C 74 % 77 % 1010,6 hPa 0,0 l/m 1,8 km/h (1 Bft) SW 225 -4,5 C -1,2 C 7,7 km/h (2 Bft)
16.01.2015 03:20 -0,4 C 1,3 C 73 % 76 % 1010,2 hPa 0,0 l/m 1,8 km/h (1 Bft) NW 315 -4,6 C -1,1 C 12,9 km/h (3 Bft)
16.01.2015 03:25 -0,7 C 1,3 C 74 % 76 % 1010,2 hPa 0,0 l/m 1,0 km/h (0 Bft) O-NO 67 -4,7 C -1,4 C 0,0 km/h (0 Bft)
16.01.2015 03:30 -0,3 C 1,3 C 75 % 76 % 1010,2 hPa 0,0 l/m 0,8 km/h (0 Bft) S 180 -4,2 C -1,5 C 0,0 km/h (0 Bft)
16.01.2015 03:35 -0,5 C 1,3 C 75 % 76 % 1010,2 hPa 0,0 l/m 0,8 km/h (0 Bft) W 270 -4,4 C -1,5 C 2,7 km/h (1 Bft)
16.01.2015 03:40 -0,9 C 1,3 C 74 % 76 % 1010,1 hPa 0,0 l/m 0,2 km/h (0 Bft) W 270 -4,9 C -1,7 C 0,0 km/h (0 Bft)
16.01.2015 03:45 -1,2 C 1,3 C 74 % 76 % 1010,1 hPa 0,0 l/m 0,2 km/h (0 Bft) W-NW 292 -5,2 C -2,0 C 0,0 km/h (0 Bft)
16.01.2015 03:50 -1,3 C 1,3 C 75 % 76 % 1010,1 hPa 0,0 l/m 0,6 km/h (0 Bft) SW 225 -5,1 C -2,4 C 0,0 km/h (0 Bft)
16.01.2015 03:55 -0,9 C 1,3 C 76 % 77 % 1010,1 hPa 0,0 l/m 0,8 km/h (0 Bft) O 90 -4,6 C -2,3 C 0,0 km/h (0 Bft)
16.01.2015 04:00 -1,2 C 1,3 C 76 % 77 % 1010,1 hPa 0,0 l/m 0,6 km/h (0 Bft) SO 135 -4,9 C -2,4 C 3,2 km/h (1 Bft)
16.01.2015 04:05 1,1 C 1,3 C 74 % 77 % 1010,1 hPa 0,0 l/m 1,4 km/h (1 Bft) SO 135 -3,0 C -1,6 C 4,5 km/h (1 Bft)
16.01.2015 04:10 -0,5 C 1,3 C 71 % 76 % 1010,1 hPa 0,0 l/m 2,4 km/h (1 Bft) W 270 -5,1 C -0,7 C 0,0 km/h (0 Bft)
16.01.2015 04:15 -0,6 C 1,3 C 72 % 76 % 1010,1 hPa 0,0 l/m 1,6 km/h (1 Bft) W-NW 292 -5,0 C -1,0 C 0,0 km/h (0 Bft)
16.01.2015 04:20 0,1 C 1,3 C 73 % 76 % 1010,1 hPa 0,0 l/m 0,5 km/h (0 Bft) W-SW 247 -4,2 C -1,1 C 0,0 km/h (0 Bft)
16.01.2015 04:25 1,2 C 1,3 C 72 % 76 % 1010,1 hPa 0,0 l/m 1,6 km/h (1 Bft) S-SO 157 -3,3 C -0,9 C 2,9 km/h (1 Bft)
16.01.2015 04:30 0,8 C 1,3 C 69 % 75 % 1010,1 hPa 0,0 l/m 1,6 km/h (1 Bft) S-SO 157 -4,2 C 0,3 C 0,0 km/h (0 Bft)
16.01.2015 04:35 -0,7 C 1,3 C 69 % 75 % 1010,1 hPa 0,0 l/m 0,8 km/h (0 Bft) S 180 -5,7 C -0,2 C 0,0 km/h (0 Bft)
16.01.2015 04:40 0,7 C 1,3 C 71 % 75 % 1010,1 hPa 0,0 l/m 1,1 km/h (1 Bft) S-SO 157 -3,9 C -1,0 C 3,9 km/h (1 Bft)
16.01.2015 04:45 0,5 C 1,3 C 69 % 75 % 1010,1 hPa 0,0 l/m 1,6 km/h (1 Bft) S-SO 157 -4,5 C -0,2 C 2,7 km/h (1 Bft)
16.01.2015 04:50 0,0 C 1,3 C 69 % 74 % 1010,1 hPa 0,0 l/m 1,4 km/h (1 Bft) W-SW 247 -5,0 C 0,0 C 0,0 km/h (0 Bft)
16.01.2015 04:55 -0,9 C 1,3 C 69 % 74 % 1010,1 hPa 0,0 l/m 0,6 km/h (0 Bft) W-SW 247 -5,9 C -0,8 C 0,0 km/h (0 Bft)
16.01.2015 05:00 0,3 C 1,3 C 71 % 74 % 1009,8 hPa 0,0 l/m 0,8 km/h (0 Bft) W-SW 247 -4,3 C -0,9 C 3,2 km/h (1 Bft)
16.01.2015 05:05 -0,4 C 1,3 C 70 % 74 % 1009,8 hPa 0,0 l/m 1,0 km/h (0 Bft) W-SW 247 -5,2 C -0,8 C 0,0 km/h (0 Bft)
16.01.2015 05:10 -0,6 C 1,3 C 72 % 75 % 1009,8 hPa 0,0 l/m 0,5 km/h (0 Bft) SO 135 -5,0 C -1,4 C 4,8 km/h (1 Bft)
16.01.2015 05:15 -0,1 C 1,3 C 72 % 75 % 1009,8 hPa 0,0 l/m 0,5 km/h (0 Bft) S 180 -4,5 C -1,3 C 1,8 km/h (1 Bft)
16.01.2015 05:20 -0,5 C 1,3 C 71 % 75 % 1009,9 hPa 0,0 l/m 1,0 km/h (0 Bft) W-SW 247 -5,1 C -1,0 C 0,0 km/h (0 Bft)
16.01.2015 05:25 -0,1 C 1,3 C 72 % 75 % 1009,9 hPa 0,0 l/m 1,3 km/h (1 Bft) SO 135 -4,5 C -1,0 C 0,0 km/h (0 Bft)
16.01.2015 05:30 -0,7 C 1,3 C 72 % 75 % 1009,9 hPa 0,0 l/m 1,4 km/h (1 Bft) SW 225 -5,1 C -1,0 C 2,1 km/h (1 Bft)
16.01.2015 05:35 -1,1 C 1,3 C 73 % 75 % 1009,9 hPa 0,0 l/m 1,0 km/h (0 Bft) SO 135 -5,3 C -1,5 C 2,6 km/h (1 Bft)
16.01.2015 05:40 -1,2 C 1,3 C 74 % 75 % 1009,9 hPa 0,0 l/m 0,6 km/h (0 Bft) SW 225 -5,2 C -1,9 C 2,6 km/h (1 Bft)
16.01.2015 05:45 -1,2 C 1,2 C 75 % 76 % 1009,9 hPa 0,0 l/m 0,5 km/h (0 Bft) SW 225 -5,0 C -2,2 C 0,0 km/h (0 Bft)
16.01.2015 05:50 -1,4 C 1,2 C 75 % 76 % 1009,9 hPa 0,0 l/m 0,2 km/h (0 Bft) W-NW 292 -5,2 C -2,5 C 1,6 km/h (1 Bft)
16.01.2015 05:55 -0,3 C 1,2 C 76 % 76 % 1009,9 hPa 0,0 l/m 0,6 km/h (0 Bft) SO 135 -4,0 C -1,9 C 0,0 km/h (0 Bft)
16.01.2015 06:00 -1,3 C 1,2 C 74 % 76 % 1009,8 hPa 0,0 l/m 0,6 km/h (0 Bft) SO 135 -5,3 C -1,9 C 0,0 km/h (0 Bft)
16.01.2015 06:05 -1,3 C 1,2 C 75 % 76 % 1009,8 hPa 0,0 l/m 0,0 km/h (0 Bft) SO 135 -5,1 C -2,0 C 0,0 km/h (0 Bft)
16.01.2015 06:10 -1,6 C 1,2 C 75 % 76 % 1009,8 hPa 0,0 l/m 0,2 km/h (0 Bft) SW 225 -5,4 C -2,5 C 2,3 km/h (1 Bft)
16.01.2015 06:15 -1,8 C 1,2 C 75 % 76 % 1009,8 hPa 0,0 l/m 0,2 km/h (0 Bft) SW 225 -5,6 C -2,7 C 0,0 km/h (0 Bft)
16.01.2015 06:20 -1,8 C 1,2 C 76 % 76 % 1009,6 hPa 0,0 l/m 0,2 km/h (0 Bft) SW 225 -5,5 C -3,0 C 0,0 km/h (0 Bft)
16.01.2015 06:25 -1,9 C 1,2 C 76 % 77 % 1009,6 hPa 0,0 l/m 0,0 km/h (0 Bft) SW 225 -5,6 C -3,1 C 0,0 km/h (0 Bft)
16.01.2015 06:30 -1,9 C 1,2 C 77 % 77 % 1009,6 hPa 0,0 l/m 0,2 km/h (0 Bft) W-SW 247 -5,4 C -3,2 C 0,0 km/h (0 Bft)
16.01.2015 06:35 -1,8 C 1,2 C 77 % 77 % 1009,6 hPa 0,0 l/m 0,3 km/h (0 Bft) NW 315 -5,3 C -3,2 C 3,4 km/h (1 Bft)
16.01.2015 06:40 -1,9 C 1,2 C 77 % 77 % 1009,8 hPa 0,0 l/m 0,2 km/h (0 Bft) W-SW 247 -5,4 C -2,9 C 0,0 km/h (0 Bft)
16.01.2015 06:45 -1,9 C 1,2 C 78 % 78 % 1009,8 hPa 0,0 l/m 0,2 km/h (0 Bft) S-SO 157 -5,2 C -3,0 C 0,0 km/h (0 Bft)
16.01.2015 06:50 -1,7 C 1,2 C 78 % 78 % 1009,8 hPa 0,0 l/m 0,0 km/h (0 Bft) S 180 -5,0 C -3,0 C 0,0 km/h (0 Bft)
16.01.2015 06:55 -1,0 C 1,2 C 78 % 78 % 1009,8 hPa 0,0 l/m 0,3 km/h (0 Bft) S 180 -4,3 C -2,6 C 2,3 km/h (1 Bft)
16.01.2015 07:00 1,9 C 1,2 C 76 % 78 % 1009,7 hPa 0,0 l/m 1,6 km/h (1 Bft) S-SO 157 -1,9 C -0,3 C 3,1 km/h (1 Bft)
16.01.2015 07:05 2,5 C 1,3 C 73 % 77 % 1009,7 hPa 0,0 l/m 2,1 km/h (1 Bft) S-SW 202 -1,8 C 1,0 C 2,9 km/h (1 Bft)
16.01.2015 07:10 0,0 C 1,3 C 70 % 74 % 1009,7 hPa 0,0 l/m 1,4 km/h (1 Bft) SO 135 -4,8 C 1,1 C 0,0 km/h (0 Bft)
16.01.2015 07:15 1,3 C 1,3 C 72 % 75 % 1009,7 hPa 0,0 l/m 1,6 km/h (1 Bft) S-SO 157 -3,2 C 0,7 C 3,9 km/h (1 Bft)
16.01.2015 07:21 1,9 C 1,3 C 69 % 73 % 1009,9 hPa 0,0 l/m 2,4 km/h (1 Bft) S 180 -3,2 C 2,0 C 3,4 km/h (1 Bft)
16.01.2015 07:22 1,7 C 1,3 C 68 % 72 % 1009,9 hPa 0,0 l/m 2,1 km/h (1 Bft) SO 135 -3,6 C 2,2 C 0,0 km/h (0 Bft)
16.01.2015 07:23 1,7 C 1,3 C 68 % 72 % 1009,9 hPa 0,0 l/m 2,1 km/h (1 Bft) SO 135 -3,6 C 2,2 C 0,0 km/h (0 Bft)
16.01.2015 07:24 1,7 C 1,3 C 68 % 72 % 1009,9 hPa 0,0 l/m 2,1 km/h (1 Bft) SO 135 -3,6 C 2,2 C 0,0 km/h (0 Bft)
16.01.2015 07:25 1,7 C 1,3 C 68 % 72 % 1009,9 hPa 0,0 l/m 2,1 km/h (1 Bft) SO 135 -3,6 C 2,2 C 0,0 km/h (0 Bft)
16.01.2015 07:26 2,5 C 1,3 C 67 % 72 % 1009,9 hPa 0,0 l/m 1,9 km/h (1 Bft) W-SW 247 -3,0 C 2,4 C 3,1 km/h (1 Bft)
16.01.2015 07:31 2,2 C 1,3 C 67 % 71 % 1009,9 hPa 0,0 l/m 2,1 km/h (1 Bft) S 180 -3,3 C 2,2 C 3,7 km/h (1 Bft)
16.01.2015 07:36 3,1 C 1,2 C 64 % 69 % 1010,0 hPa 0,0 l/m 1,6 km/h (1 Bft) S-SO 157 -3,0 C 3,0 C 1,8 km/h (1 Bft)
16.01.2015 07:41 3,4 C 1,2 C 63 % 69 % 1010,0 hPa 0,0 l/m 1,9 km/h (1 Bft) S 180 -3,0 C 3,1 C 2,3 km/h (1 Bft)
16.01.2015 07:46 1,2 C 1,2 C 64 % 68 % 1010,0 hPa 0,0 l/m 1,0 km/h (0 Bft) SW 225 -4,8 C 2,6 C 0,0 km/h (0 Bft)
16.01.2015 07:51 1,8 C 1,3 C 66 % 69 % 1010,0 hPa 0,0 l/m 1,0 km/h (0 Bft) SO 135 -3,9 C 1,7 C 3,1 km/h (1 Bft)
16.01.2015 07:56 2,8 C 1,2 C 64 % 69 % 1010,0 hPa 0,0 l/m 1,6 km/h (1 Bft) SO 135 -3,3 C 2,3 C 0,0 km/h (0 Bft)
16.01.2015 08:01 0,9 C 1,2 C 65 % 69 % 1010,0 hPa 0,0 l/m 1,3 km/h (1 Bft) SO 135 -4,9 C 1,8 C 0,0 km/h (0 Bft)
16.01.2015 08:06 0,3 C 1,3 C 66 % 70 % 1010,0 hPa 0,0 l/m 0,2 km/h (0 Bft) SO 135 -5,3 C 0,5 C 0,0 km/h (0 Bft)
16.01.2015 08:11 0,2 C 1,3 C 68 % 71 % 1010,0 hPa 0,0 l/m 0,2 km/h (0 Bft) SO 135 -5,0 C 0,0 C 0,0 km/h (0 Bft)
16.01.2015 08:16 -0,1 C 1,3 C 68 % 71 % 1010,1 hPa 0,0 l/m 0,0 km/h (0 Bft) SO 135 -5,3 C -0,7 C 0,0 km/h (0 Bft)
16.01.2015 08:17 -0,1 C 1,3 C 68 % 71 % 1010,1 hPa 0,0 l/m 0,0 km/h (0 Bft) SO 135 -5,3 C -0,7 C 0,0 km/h (0 Bft)
16.01.2015 08:20 -0,1 C 1,3 C 68 % 71 % 1010,1 hPa 0,0 l/m 0,0 km/h (0 Bft) SO 135 -5,3 C -0,7 C 0,0 km/h (0 Bft)
16.01.2015 08:25 -0,2 C 1,3 C 69 % 72 % 1010,1 hPa 0,0 l/m 0,0 km/h (0 Bft) SO 135 -5,2 C -1,0 C 0,0 km/h (0 Bft)
16.01.2015 08:30 -0,5 C 1,3 C 70 % 72 % 1010,1 hPa 0,0 l/m 0,0 km/h (0 Bft) SO 135 -5,3 C -1,4 C 0,0 km/h (0 Bft)
16.01.2015 08:35 -0,5 C 1,3 C 71 % 73 % 1010,1 hPa 0,0 l/m 0,2 km/h (0 Bft) S-SO 157 -5,1 C -1,7 C 2,3 km/h (1 Bft)
16.01.2015 08:40 -0,3 C 1,3 C 72 % 73 % 1010,0 hPa 0,0 l/m 0,2 km/h (0 Bft) SO 135 -4,7 C -1,3 C 0,0 km/h (0 Bft)
16.01.2015 08:45 0,5 C 1,3 C 74 % 74 % 1010,0 hPa 0,0 l/m 0,8 km/h (0 Bft) SO 135 -3,6 C -1,1 C 2,7 km/h (1 Bft)
16.01.2015 08:50 0,1 C 1,3 C 73 % 74 % 1010,0 hPa 0,0 l/m 0,5 km/h (0 Bft) SO 135 -4,2 C -0,6 C 0,0 km/h (0 Bft)
16.01.2015 08:55 0,9 C 1,3 C 74 % 74 % 1010,0 hPa 0,0 l/m 0,8 km/h (0 Bft) SO 135 -3,2 C -0,3 C 3,5 km/h (1 Bft)
16.01.2015 09:00 0,5 C 1,3 C 73 % 74 % 1010,0 hPa 0,0 l/m 0,8 km/h (0 Bft) SO 135 -3,8 C 0,3 C 0,0 km/h (0 Bft)
16.01.2015 09:05 1,4 C 1,3 C 74 % 75 % 1010,0 hPa 0,0 l/m 0,5 km/h (0 Bft) S-SO 157 -2,7 C 0,5 C 0,0 km/h (0 Bft)
16.01.2015 09:10 1,2 C 1,3 C 72 % 74 % 1010,0 hPa 0,0 l/m 0,2 km/h (0 Bft) S 180 -3,3 C 1,3 C 0,0 km/h (0 Bft)
16.01.2015 09:15 1,0 C 1,3 C 72 % 74 % 1010,0 hPa 0,0 l/m 0,0 km/h (0 Bft) S-SO 157 -3,5 C 1,1 C 0,0 km/h (0 Bft)
16.01.2015 09:20 1,0 C 1,3 C 73 % 74 % 1010,1 hPa 0,0 l/m 0,0 km/h (0 Bft) SO 135 -3,3 C 1,0 C 0,0 km/h (0 Bft)
16.01.2015 09:25 1,1 C 1,3 C 73 % 74 % 1010,1 hPa 0,0 l/m 0,0 km/h (0 Bft) SO 135 -3,2 C 0,9 C 0,0 km/h (0 Bft)
16.01.2015 09:30 1,2 C 1,3 C 73 % 74 % 1010,1 hPa 0,0 l/m 0,0 km/h (0 Bft) SO 135 -3,1 C 0,9 C 0,0 km/h (0 Bft)
16.01.2015 09:35 1,4 C 1,3 C 73 % 74 % 1010,1 hPa 0,0 l/m 0,0 km/h (0 Bft) SO 135 -2,9 C 0,9 C 0,0 km/h (0 Bft)
16.01.2015 09:40 2,0 C 1,2 C 74 % 74 % 1010,1 hPa 0,0 l/m 0,3 km/h (0 Bft) S-SO 157 -2,1 C 1,1 C 1,8 km/h (1 Bft)
16.01.2015 09:45 2,0 C 1,2 C 73 % 74 % 1010,1 hPa 0,0 l/m 0,3 km/h (0 Bft) SO 135 -2,3 C 1,5 C 0,0 km/h (0 Bft)
16.01.2015 09:50 3,3 C 1,2 C 72 % 75 % 1010,1 hPa 0,0 l/m 0,5 km/h (0 Bft) S-SO 157 -1,3 C 2,2 C 0,0 km/h (0 Bft)
16.01.2015 09:55 2,7 C 1,2 C 72 % 74 % 1010,1 hPa 0,0 l/m 0,3 km/h (0 Bft) S 180 -1,8 C 2,9 C 0,0 km/h (0 Bft)
16.01.2015 10:00 4,4 C 1,2 C 70 % 74 % 1010,2 hPa 0,0 l/m 1,0 km/h (0 Bft) S 180 -0,6 C 3,8 C 0,0 km/h (0 Bft)
16.01.2015 10:05 4,0 C 1,2 C 69 % 73 % 1010,2 hPa 0,0 l/m 0,8 km/h (0 Bft) S-SO 157 -1,2 C 4,6 C 0,0 km/h (0 Bft)
16.01.2015 10:10 4,0 C 1,2 C 69 % 72 % 1010,2 hPa 0,0 l/m 0,2 km/h (0 Bft) SO 135 -1,2 C 4,9 C 2,3 km/h (1 Bft)
16.01.2015 10:15 4,5 C 1,2 C 69 % 72 % 1010,2 hPa 0,0 l/m 0,3 km/h (0 Bft) SW 225 -0,7 C 5,2 C 0,0 km/h (0 Bft)
16.01.2015 10:20 4,6 C 1,3 C 69 % 72 % 1010,4 hPa 0,0 l/m 0,3 km/h (0 Bft) SW 225 -0,6 C 5,7 C 0,0 km/h (0 Bft)
16.01.2015 10:25 4,8 C 1,3 C 69 % 72 % 1010,4 hPa 0,0 l/m 0,0 km/h (0 Bft) SW 225 -0,4 C 6,0 C 0,0 km/h (0 Bft)
16.01.2015 10:30 5,5 C 1,3 C 68 % 71 % 1010,4 hPa 0,0 l/m 0,0 km/h (0 Bft) SW 225 0,1 C 6,5 C 0,0 km/h (0 Bft)
16.01.2015 10:35 5,6 C 1,3 C 68 % 71 % 1010,4 hPa 0,0 l/m 0,0 km/h (0 Bft) SW 225 0,2 C 6,8 C 0,0 km/h (0 Bft)
16.01.2015 10:40 6,1 C 1,2 C 66 % 70 % 1010,2 hPa 0,0 l/m 0,2 km/h (0 Bft) SW 225 0,2 C 7,4 C 1,9 km/h (1 Bft)
16.01.2015 10:45 6,1 C 1,2 C 66 % 69 % 1010,2 hPa 0,0 l/m 0,3 km/h (0 Bft) S 180 0,2 C 7,8 C 0,0 km/h (0 Bft)
16.01.2015 10:50 6,1 C 1,2 C 66 % 69 % 1010,2 hPa 0,0 l/m 0,2 km/h (0 Bft) S 180 0,2 C 7,8 C 0,0 km/h (0 Bft)
16.01.2015 10:55 6,1 C 1,2 C 66 % 69 % 1010,2 hPa 0,0 l/m 0,0 km/h (0 Bft) S 180 0,2 C 7,8 C 0,0 km/h (0 Bft)
16.01.2015 11:00 6,1 C 1,2 C 66 % 68 % 1009,9 hPa 0,0 l/m 0,0 km/h (0 Bft) S 180 0,2 C 8,0 C 0,0 km/h (0 Bft)
16.01.2015 11:05 6,1 C 1,2 C 66 % 68 % 1009,9 hPa 0,0 l/m 0,0 km/h (0 Bft) S-SW 202 0,2 C 8,1 C 0,0 km/h (0 Bft)
16.01.2015 11:10 6,1 C 1,2 C 66 % 68 % 1009,9 hPa 0,0 l/m 0,0 km/h (0 Bft) S-SW 202 0,2 C 8,3 C 0,0 km/h (0 Bft)
16.01.2015 11:15 6,1 C 1,2 C 66 % 68 % 1009,9 hPa 0,0 l/m 0,0 km/h (0 Bft) S 180 0,2 C 8,3 C 0,0 km/h (0 Bft)
16.01.2015 11:20 6,1 C 1,2 C 66 % 68 % 1009,7 hPa 0,0 l/m 0,0 km/h (0 Bft) SO 135 0,2 C 8,3 C 1,9 km/h (1 Bft)
16.01.2015 11:25 6,1 C 1,2 C 66 % 67 % 1009,7 hPa 0,0 l/m 0,2 km/h (0 Bft) SO 135 0,2 C 8,3 C 0,0 km/h (0 Bft)
16.01.2015 11:30 6,1 C 1,2 C 66 % 67 % 1009,7 hPa 0,0 l/m 0,2 km/h (0 Bft) SO 135 0,2 C 8,4 C 0,0 km/h (0 Bft)
16.01.2015 11:35 6,1 C 1,2 C 66 % 67 % 1009,7 hPa 0,0 l/m 0,0 km/h (0 Bft) SO 135 0,2 C 8,4 C 0,0 km/h (0 Bft)
16.01.2015 11:40 6,1 C 1,2 C 66 % 67 % 1009,5 hPa 0,0 l/m 0,0 km/h (0 Bft) SO 135 0,2 C 8,3 C 0,0 km/h (0 Bft)
16.01.2015 11:45 6,1 C 1,2 C 66 % 66 % 1009,5 hPa 0,0 l/m 0,0 km/h (0 Bft) SO 135 0,2 C 8,4 C 0,0 km/h (0 Bft)
16.01.2015 11:50 6,1 C 1,2 C 66 % 66 % 1009,5 hPa 0,0 l/m 0,2 km/h (0 Bft) SW 225 0,2 C 8,6 C 2,4 km/h (1 Bft)
16.01.2015 11:55 6,1 C 1,2 C 66 % 66 % 1009,5 hPa 0,0 l/m 0,3 km/h (0 Bft) SW 225 0,2 C 8,6 C 0,0 km/h (0 Bft)
16.01.2015 12:00 6,1 C 1,2 C 66 % 66 % 1009,3 hPa 0,0 l/m 0,6 km/h (0 Bft) SW 225 0,2 C 8,7 C 0,0 km/h (0 Bft)
16.01.2015 12:05 6,1 C 1,2 C 66 % 66 % 1009,3 hPa 0,0 l/m 0,3 km/h (0 Bft) SW 225 0,2 C 8,9 C 0,0 km/h (0 Bft)
16.01.2015 12:10 6,1 C 1,2 C 66 % 66 % 1009,3 hPa 0,0 l/m 0,0 km/h (0 Bft) SW 225 0,2 C 9,2 C 0,0 km/h (0 Bft)
16.01.2015 12:15 8,2 C 1,2 C 59 % 65 % 1009,3 hPa 0,0 l/m 0,0 km/h (0 Bft) SW 225 0,7 C 9,4 C 0,0 km/h (0 Bft)
16.01.2015 12:20 8,5 C 1,2 C 59 % 65 % 1009,1 hPa 0,0 l/m 0,0 km/h (0 Bft) SW 225 1,0 C 9,5 C 0,0 km/h (0 Bft)
16.01.2015 12:25 8,7 C 1,2 C 59 % 64 % 1009,1 hPa 0,0 l/m 0,0 km/h (0 Bft) SW 225 1,1 C 9,5 C 0,0 km/h (0 Bft)
16.01.2015 12:30 8,8 C 1,2 C 59 % 65 % 1009,1 hPa 0,0 l/m 0,0 km/h (0 Bft) SW 225 1,2 C 9,6 C 0,0 km/h (0 Bft)
16.01.2015 12:35 9,0 C 1,2 C 58 % 65 % 1009,1 hPa 0,0 l/m 0,0 km/h (0 Bft) SW 225 1,2 C 9,7 C 0,0 km/h (0 Bft)
16.01.2015 12:40 8,8 C 1,2 C 57 % 64 % 1008,9 hPa 0,0 l/m 0,5 km/h (0 Bft) SW 225 0,8 C 9,7 C 2,9 km/h (1 Bft)
16.01.2015 12:45 8,6 C 1,2 C 57 % 64 % 1008,9 hPa 0,0 l/m 1,3 km/h (1 Bft) SW 225 0,6 C 9,5 C 4,8 km/h (1 Bft)
16.01.2015 12:50 8,6 C 1,2 C 56 % 63 % 1008,9 hPa 0,0 l/m 2,4 km/h (1 Bft) W 270 0,3 C 9,3 C 3,4 km/h (1 Bft)
16.01.2015 12:55 8,8 C 1,2 C 56 % 63 % 1008,9 hPa 0,0 l/m 2,7 km/h (1 Bft) W-SW 247 0,5 C 9,3 C 4,0 km/h (1 Bft)
16.01.2015 13:00 8,8 C 1,2 C 57 % 63 % 1008,7 hPa 0,0 l/m 1,1 km/h (1 Bft) W-SW 247 0,8 C 9,4 C 0,0 km/h (0 Bft)
16.01.2015 13:05 8,9 C 1,2 C 57 % 63 % 1008,7 hPa 0,0 l/m 1,1 km/h (1 Bft) W 270 0,9 C 9,5 C 2,4 km/h (1 Bft)
16.01.2015 13:10 9,3 C 1,2 C 55 % 63 % 1008,7 hPa 0,0 l/m 1,9 km/h (1 Bft) W 270 0,7 C 9,8 C 3,9 km/h (1 Bft)
16.01.2015 13:15 9,4 C 1,2 C 56 % 62 % 1008,7 hPa 0,0 l/m 1,9 km/h (1 Bft) W 270 1,1 C 10,0 C 2,4 km/h (1 Bft)
16.01.2015 13:20 9,1 C 1,2 C 55 % 62 % 1008,6 hPa 0,0 l/m 2,4 km/h (1 Bft) W 270 0,5 C 10,0 C 1,8 km/h (1 Bft)
16.01.2015 13:25 8,9 C 1,2 C 56 % 62 % 1008,6 hPa 0,0 l/m 1,8 km/h (1 Bft) W-SW 247 0,6 C 9,8 C 0,0 km/h (0 Bft)
16.01.2015 13:30 9,1 C 1,2 C 57 % 62 % 1008,6 hPa 0,0 l/m 0,8 km/h (0 Bft) W-SW 247 1,0 C 9,8 C 1,6 km/h (1 Bft)
16.01.2015 13:35 9,4 C 1,2 C 57 % 62 % 1008,6 hPa 0,0 l/m 0,3 km/h (0 Bft) W-SW 247 1,3 C 10,0 C 0,0 km/h (0 Bft)
16.01.2015 13:40 9,6 C 1,3 C 56 % 62 % 1008,2 hPa 0,0 l/m 0,2 km/h (0 Bft) W-SW 247 1,3 C 10,2 C 0,0 km/h (0 Bft)
16.01.2015 13:45 9,6 C 1,2 C 56 % 62 % 1008,2 hPa 0,0 l/m 0,3 km/h (0 Bft) W 270 1,3 C 10,3 C 0,0 km/h (0 Bft)
16.01.2015 13:50 9,5 C 1,2 C 56 % 62 % 1008,2 hPa 0,0 l/m 0,2 km/h (0 Bft) W-SW 247 1,2 C 10,3 C 0,0 km/h (0 Bft)
16.01.2015 13:55 9,5 C 1,2 C 57 % 62 % 1008,2 hPa 0,0 l/m 0,0 km/h (0 Bft) W-SW 247 1,4 C 10,3 C 0,0 km/h (0 Bft)
16.01.2015 14:00 9,2 C 1,2 C 56 % 61 % 1007,9 hPa 0,0 l/m 0,0 km/h (0 Bft) W-SW 247 0,9 C 10,1 C 0,0 km/h (0 Bft)
16.01.2015 14:05 9,1 C 1,2 C 56 % 61 % 1007,9 hPa 0,0 l/m 0,0 km/h (0 Bft) W-SW 247 0,8 C 9,9 C 0,0 km/h (0 Bft)
16.01.2015 14:10 8,9 C 1,2 C 56 % 62 % 1007,9 hPa 0,0 l/m 0,0 km/h (0 Bft) W 270 0,6 C 9,6 C 0,0 km/h (0 Bft)
16.01.2015 14:15 9,3 C 1,2 C 56 % 61 % 1007,9 hPa 0,0 l/m 0,2 km/h (0 Bft) W-SW 247 1,0 C 9,6 C 0,0 km/h (0 Bft)
16.01.2015 14:20 9,3 C 1,2 C 56 % 61 % 1007,6 hPa 0,0 l/m 0,2 km/h (0 Bft) W 270 1,0 C 9,9 C 0,0 km/h (0 Bft)
16.01.2015 14:25 9,3 C 1,2 C 56 % 60 % 1007,6 hPa 0,0 l/m 0,2 km/h (0 Bft) W-SW 247 1,0 C 9,9 C 0,0 km/h (0 Bft)
16.01.2015 14:30 9,4 C 1,2 C 54 % 59 % 1007,6 hPa 0,0 l/m 0,5 km/h (0 Bft) O 90 0,6 C 9,9 C 0,0 km/h (0 Bft)
16.01.2015 14:35 9,4 C 1,2 C 55 % 59 % 1007,6 hPa 0,0 l/m 0,6 km/h (0 Bft) O 90 0,8 C 9,9 C 0,0 km/h (0 Bft)
16.01.2015 14:40 9,5 C 1,2 C 54 % 59 % 1007,6 hPa 0,0 l/m 0,2 km/h (0 Bft) O 90 0,7 C 9,9 C 0,0 km/h (0 Bft)
16.01.2015 14:45 9,7 C 1,2 C 54 % 59 % 1007,6 hPa 0,0 l/m 0,0 km/h (0 Bft) O-NO 67 0,9 C 10,0 C 0,0 km/h (0 Bft)
16.01.2015 14:50 9,9 C 1,2 C 54 % 59 % 1007,6 hPa 0,0 l/m 0,0 km/h (0 Bft) O-NO 67 1,0 C 10,2 C 0,0 km/h (0 Bft)
16.01.2015 14:55 10,3 C 1,2 C 50 % 58 % 1007,6 hPa 0,0 l/m 0,6 km/h (0 Bft) O-NO 67 0,3 C 10,5 C 3,1 km/h (1 Bft)
16.01.2015 15:00 10,3 C 1,2 C 50 % 58 % 1007,7 hPa 0,0 l/m 1,1 km/h (1 Bft) N-NW 337 0,3 C 10,8 C 1,8 km/h (1 Bft)
16.01.2015 15:05 10,2 C 1,3 C 51 % 58 % 1007,7 hPa 0,0 l/m 1,0 km/h (0 Bft) N-NO 22 0,5 C 10,8 C 0,0 km/h (0 Bft)
16.01.2015 15:10 10,0 C 1,2 C 51 % 58 % 1007,7 hPa 0,0 l/m 0,6 km/h (0 Bft) NO 45 0,3 C 10,7 C 0,0 km/h (0 Bft)
16.01.2015 15:15 9,9 C 1,2 C 52 % 58 % 1007,7 hPa 0,0 l/m 0,6 km/h (0 Bft) NO 45 0,5 C 10,6 C 0,0 km/h (0 Bft)
16.01.2015 15:20 9,9 C 1,2 C 51 % 58 % 1007,5 hPa 0,0 l/m 0,5 km/h (0 Bft) O-NO 67 0,2 C 10,5 C 0,0 km/h (0 Bft)
16.01.2015 15:25 9,9 C 1,2 C 51 % 58 % 1007,5 hPa 0,0 l/m 0,5 km/h (0 Bft) N-NO 22 0,2 C 10,4 C 0,0 km/h (0 Bft)
16.01.2015 15:30 9,7 C 1,2 C 52 % 58 % 1007,5 hPa 0,0 l/m 0,5 km/h (0 Bft) N-NO 22 0,3 C 10,3 C 0,0 km/h (0 Bft)
16.01.2015 15:35 9,7 C 1,3 C 52 % 58 % 1007,5 hPa 0,0 l/m 0,3 km/h (0 Bft) NO 45 0,3 C 10,2 C 0,0 km/h (0 Bft)
16.01.2015 15:40 9,7 C 1,3 C 52 % 58 % 1007,2 hPa 0,0 l/m 0,0 km/h (0 Bft) N-NW 337 0,3 C 10,1 C 0,0 km/h (0 Bft)
16.01.2015 15:45 10,0 C 1,3 C 49 % 57 % 1007,2 hPa 0,0 l/m 0,8 km/h (0 Bft) N-NO 22 -0,2 C 10,1 C 2,6 km/h (1 Bft)
16.01.2015 15:50 9,6 C 1,3 C 51 % 58 % 1007,2 hPa 0,0 l/m 0,8 km/h (0 Bft) O-NO 67 -0,0 C 10,1 C 0,0 km/h (0 Bft)
16.01.2015 15:55 9,4 C 1,3 C 51 % 58 % 1007,2 hPa 0,0 l/m 0,3 km/h (0 Bft) O-NO 67 -0,2 C 9,9 C 0,0 km/h (0 Bft)
16.01.2015 16:00 9,2 C 1,3 C 50 % 57 % 1007,1 hPa 0,0 l/m 0,0 km/h (0 Bft) O-NO 67 -0,7 C 9,6 C 0,0 km/h (0 Bft)
16.01.2015 16:05 9,1 C 1,3 C 50 % 57 % 1007,1 hPa 0,0 l/m 0,0 km/h (0 Bft) O-NO 67 -0,8 C 9,3 C 0,0 km/h (0 Bft)
16.01.2015 16:10 9,0 C 1,3 C 50 % 57 % 1007,1 hPa 0,0 l/m 0,0 km/h (0 Bft) O-NO 67 -0,9 C 9,0 C 0,0 km/h (0 Bft)
16.01.2015 16:15 8,9 C 1,3 C 50 % 57 % 1007,1 hPa 0,0 l/m 0,2 km/h (0 Bft) O-NO 67 -0,9 C 8,9 C 0,0 km/h (0 Bft)
16.01.2015 16:20 8,9 C 1,3 C 50 % 57 % 1006,9 hPa 0,0 l/m 0,2 km/h (0 Bft) O-NO 67 -0,9 C 8,8 C 0,0 km/h (0 Bft)
16.01.2015 16:25 8,7 C 1,3 C 50 % 57 % 1006,9 hPa 0,0 l/m 0,0 km/h (0 Bft) O-NO 67 -1,1 C 8,6 C 0,0 km/h (0 Bft)
16.01.2015 16:30 8,8 C 1,3 C 50 % 57 % 1006,9 hPa 0,0 l/m 0,0 km/h (0 Bft) O-NO 67 -1,0 C 8,6 C 0,0 km/h (0 Bft)
16.01.2015 16:35 8,5 C 1,3 C 51 % 57 % 1006,9 hPa 0,0 l/m 0,0 km/h (0 Bft) O-NO 67 -1,0 C 8,4 C 0,0 km/h (0 Bft)
16.01.2015 16:40 8,4 C 1,3 C 50 % 57 % 1007,0 hPa 0,0 l/m 0,0 km/h (0 Bft) O-NO 67 -1,4 C 8,2 C 0,0 km/h (0 Bft)
16.01.2015 16:45 8,2 C 1,4 C 51 % 57 % 1007,0 hPa 0,0 l/m 0,0 km/h (0 Bft) O-NO 67 -1,3 C 8,0 C 1,6 km/h (1 Bft)
16.01.2015 16:50 7,5 C 1,4 C 52 % 58 % 1007,0 hPa 0,0 l/m 0,2 km/h (0 Bft) O-NO 67 -1,7 C 7,6 C 0,0 km/h (0 Bft)
16.01.2015 16:55 7,3 C 1,4 C 52 % 58 % 1007,0 hPa 0,0 l/m 0,2 km/h (0 Bft) O-NO 67 -1,9 C 7,3 C 0,0 km/h (0 Bft)
16.01.2015 17:00 7,2 C 1,4 C 53 % 58 % 1006,9 hPa 0,0 l/m 0,0 km/h (0 Bft) O-NO 67 -1,7 C 6,9 C 0,0 km/h (0 Bft)
16.01.2015 17:05 7,7 C 1,4 C 53 % 58 % 1006,9 hPa 0,0 l/m 0,2 km/h (0 Bft) O-NO 67 -1,3 C 6,9 C 1,8 km/h (1 Bft)
16.01.2015 17:10 7,5 C 1,4 C 53 % 58 % 1006,9 hPa 0,0 l/m 0,2 km/h (0 Bft) O-NO 67 -1,4 C 6,9 C 0,0 km/h (0 Bft)
16.01.2015 17:15 7,4 C 1,4 C 53 % 58 % 1006,9 hPa 0,0 l/m 0,2 km/h (0 Bft) O-NO 67 -1,5 C 7,0 C 0,0 km/h (0 Bft)
16.01.2015 17:20 7,8 C 1,4 C 53 % 58 % 1006,9 hPa 0,0 l/m 0,0 km/h (0 Bft) O-NO 67 -1,2 C 7,1 C 0,0 km/h (0 Bft)
16.01.2015 17:25 7,6 C 1,4 C 53 % 58 % 1006,9 hPa 0,0 l/m 0,0 km/h (0 Bft) O-NO 67 -1,4 C 7,2 C 0,0 km/h (0 Bft)
16.01.2015 17:30 8,1 C 1,4 C 52 % 58 % 1006,9 hPa 0,0 l/m 0,3 km/h (0 Bft) N-NW 337 -1,2 C 7,4 C 0,0 km/h (0 Bft)
16.01.2015 17:35 7,7 C 1,4 C 52 % 58 % 1006,9 hPa 0,0 l/m 0,3 km/h (0 Bft) NO 45 -1,5 C 7,6 C 0,0 km/h (0 Bft)
16.01.2015 17:40 7,7 C 1,4 C 53 % 58 % 1006,8 hPa 0,0 l/m 0,0 km/h (0 Bft) NO 45 -1,3 C 7,6 C 0,0 km/h (0 Bft)
16.01.2015 17:45 7,7 C 1,4 C 53 % 58 % 1006,8 hPa 0,0 l/m 0,0 km/h (0 Bft) NO 45 -1,3 C 7,5 C 0,0 km/h (0 Bft)
16.01.2015 17:50 7,9 C 1,4 C 53 % 58 % 1006,8 hPa 0,0 l/m 0,5 km/h (0 Bft) O-NO 67 -1,1 C 7,5 C 2,4 km/h (1 Bft)
16.01.2015 17:55 7,8 C 1,4 C 53 % 58 % 1006,8 hPa 0,0 l/m 0,5 km/h (0 Bft) O-NO 67 -1,2 C 7,6 C 0,0 km/h (0 Bft)
16.01.2015 18:00 7,9 C 1,4 C 53 % 58 % 1006,7 hPa 0,0 l/m 0,2 km/h (0 Bft) O-NO 67 -1,1 C 7,7 C 0,0 km/h (0 Bft)
16.01.2015 18:05 7,9 C 1,4 C 53 % 58 % 1006,7 hPa 0,0 l/m 0,0 km/h (0 Bft) O-NO 67 -1,1 C 7,8 C 0,0 km/h (0 Bft)
16.01.2015 18:10 7,6 C 1,4 C 53 % 58 % 1006,7 hPa 0,0 l/m 0,0 km/h (0 Bft) N-NO 22 -1,4 C 7,7 C 0,0 km/h (0 Bft)
16.01.2015 18:15 7,5 C 1,4 C 54 % 58 % 1006,7 hPa 0,0 l/m 0,0 km/h (0 Bft) N-NO 22 -1,2 C 7,6 C 0,0 km/h (0 Bft)
16.01.2015 18:20 7,5 C 1,4 C 54 % 58 % 1006,6 hPa 0,0 l/m 0,0 km/h (0 Bft) N-NO 22 -1,2 C 7,4 C 0,0 km/h (0 Bft)
16.01.2015 18:25 7,6 C 1,4 C 54 % 58 % 1006,6 hPa 0,0 l/m 0,0 km/h (0 Bft) O-NO 67 -1,1 C 7,4 C 0,0 km/h (0 Bft)
16.01.2015 18:30 7,6 C 1,4 C 53 % 58 % 1006,6 hPa 0,0 l/m 0,0 km/h (0 Bft) O-NO 67 -1,4 C 7,4 C 0,0 km/h (0 Bft)
16.01.2015 18:35 7,4 C 1,4 C 53 % 58 % 1006,6 hPa 0,0 l/m 0,0 km/h (0 Bft) O-NO 67 -1,5 C 7,4 C 0,0 km/h (0 Bft)
16.01.2015 18:40 7,8 C 1,4 C 53 % 59 % 1006,8 hPa 0,0 l/m 0,0 km/h (0 Bft) O-NO 67 -1,2 C 7,4 C 0,0 km/h (0 Bft)
16.01.2015 18:45 7,6 C 1,4 C 53 % 58 % 1006,8 hPa 0,0 l/m 0,0 km/h (0 Bft) O-NO 67 -1,4 C 7,4 C 0,0 km/h (0 Bft)
16.01.2015 18:50 7,5 C 1,4 C 53 % 58 % 1006,8 hPa 0,0 l/m 0,0 km/h (0 Bft) NO 45 -1,4 C 7,3 C 0,0 km/h (0 Bft)
16.01.2015 18:55 7,5 C 1,4 C 54 % 58 % 1006,8 hPa 0,0 l/m 0,0 km/h (0 Bft) NO 45 -1,2 C 7,3 C 0,0 km/h (0 Bft)
16.01.2015 19:00 7,4 C 1,4 C 54 % 58 % 1006,4 hPa 0,0 l/m 0,0 km/h (0 Bft) N-NO 22 -1,3 C 7,2 C 0,0 km/h (0 Bft)
16.01.2015 19:05 7,3 C 1,4 C 54 % 58 % 1006,4 hPa 0,0 l/m 0,0 km/h (0 Bft) N-NO 22 -1,4 C 7,2 C 0,0 km/h (0 Bft)
16.01.2015 19:10 7,1 C 1,4 C 54 % 59 % 1006,4 hPa 0,0 l/m 0,0 km/h (0 Bft) N-NO 22 -1,6 C 6,9 C 0,0 km/h (0 Bft)
16.01.2015 19:15 7,4 C 1,4 C 54 % 59 % 1006,4 hPa 0,0 l/m 0,0 km/h (0 Bft) N-NO 22 -1,3 C 6,9 C 0,0 km/h (0 Bft)
16.01.2015 19:20 7,3 C 1,4 C 54 % 58 % 1006,3 hPa 0,0 l/m 0,0 km/h (0 Bft) N 360 -1,4 C 6,8 C 0,0 km/h (0 Bft)
16.01.2015 19:25 7,4 C 1,4 C 53 % 58 % 1006,3 hPa 0,0 l/m 0,5 km/h (0 Bft) S-SW 202 -1,5 C 6,8 C 2,3 km/h (1 Bft)
16.01.2015 19:30 7,2 C 1,4 C 54 % 59 % 1006,3 hPa 0,0 l/m 0,8 km/h (0 Bft) SO 135 -1,5 C 6,7 C 3,2 km/h (1 Bft)
16.01.2015 19:35 7,6 C 1,4 C 53 % 59 % 1006,3 hPa 0,0 l/m 0,8 km/h (0 Bft) S-SO 157 -1,4 C 6,9 C 0,0 km/h (0 Bft)
16.01.2015 19:40 7,5 C 1,5 C 53 % 58 % 1006,6 hPa 0,0 l/m 1,0 km/h (0 Bft) SO 135 -1,4 C 7,1 C 0,0 km/h (0 Bft)
16.01.2015 19:45 7,2 C 1,5 C 54 % 59 % 1006,6 hPa 0,0 l/m 0,5 km/h (0 Bft) SO 135 -1,5 C 7,1 C 0,0 km/h (0 Bft)
16.01.2015 19:50 7,2 C 1,5 C 54 % 59 % 1006,6 hPa 0,0 l/m 0,3 km/h (0 Bft) SO 135 -1,5 C 7,1 C 0,0 km/h (0 Bft)
16.01.2015 19:55 7,3 C 1,5 C 54 % 59 % 1006,6 hPa 0,0 l/m 0,0 km/h (0 Bft) S-SO 157 -1,4 C 7,1 C 0,0 km/h (0 Bft)
16.01.2015 20:00 7,1 C 1,5 C 54 % 59 % 1006,4 hPa 0,0 l/m 0,2 km/h (0 Bft) S-SO 157 -1,6 C 7,1 C 0,0 km/h (0 Bft)
16.01.2015 20:05 7,1 C 1,5 C 54 % 59 % 1006,4 hPa 0,0 l/m 0,0 km/h (0 Bft) SO 135 -1,6 C 7,0 C 0,0 km/h (0 Bft)
16.01.2015 20:10 7,8 C 1,5 C 53 % 59 % 1006,4 hPa 0,0 l/m 0,8 km/h (0 Bft) O-NO 67 -1,2 C 7,1 C 1,9 km/h (1 Bft)
16.01.2015 20:15 7,6 C 1,5 C 53 % 59 % 1006,4 hPa 0,0 l/m 0,8 km/h (0 Bft) O-NO 67 -1,4 C 7,3 C 0,0 km/h (0 Bft)
16.01.2015 20:20 7,2 C 1,5 C 54 % 59 % 1006,2 hPa 0,0 l/m 0,2 km/h (0 Bft) O-NO 67 -1,5 C 7,2 C 0,0 km/h (0 Bft)
16.01.2015 20:25 7,1 C 1,5 C 54 % 59 % 1006,2 hPa 0,0 l/m 0,0 km/h (0 Bft) O-NO 67 -1,6 C 7,2 C 0,0 km/h (0 Bft)
16.01.2015 20:30 6,9 C 1,5 C 56 % 59 % 1006,2 hPa 0,0 l/m 0,2 km/h (0 Bft) O-NO 67 -1,3 C 6,9 C 0,0 km/h (0 Bft)
16.01.2015 20:35 6,9 C 1,5 C 56 % 59 % 1006,2 hPa 0,0 l/m 0,2 km/h (0 Bft) O-NO 67 -1,3 C 6,8 C 0,0 km/h (0 Bft)
16.01.2015 20:40 6,8 C 1,5 C 56 % 59 % 1006,4 hPa 0,0 l/m 0,2 km/h (0 Bft) O-NO 67 -1,4 C 6,6 C 0,0 km/h (0 Bft)
16.01.2015 20:45 6,9 C 1,5 C 56 % 59 % 1006,4 hPa 0,0 l/m 0,2 km/h (0 Bft) O-NO 67 -1,3 C 6,4 C 0,0 km/h (0 Bft)
16.01.2015 20:50 6,4 C 1,5 C 56 % 59 % 1006,4 hPa 0,0 l/m 0,0 km/h (0 Bft) O-NO 67 -1,7 C 6,1 C 0,0 km/h (0 Bft)
16.01.2015 20:55 6,6 C 1,5 C 56 % 59 % 1006,4 hPa 0,0 l/m 0,0 km/h (0 Bft) O-NO 67 -1,5 C 6,0 C 0,0 km/h (0 Bft)
16.01.2015 21:00 6,9 C 1,5 C 55 % 59 % 1006,3 hPa 0,0 l/m 1,0 km/h (0 Bft) W-SW 247 -1,5 C 5,9 C 3,5 km/h (1 Bft)
16.01.2015 21:05 6,7 C 1,5 C 54 % 59 % 1006,3 hPa 0,0 l/m 2,4 km/h (1 Bft) W-SW 247 -1,9 C 6,0 C 9,3 km/h (2 Bft)
16.01.2015 21:10 6,4 C 1,5 C 53 % 59 % 1006,3 hPa 0,0 l/m 3,9 km/h (1 Bft) SW 225 -2,5 C 5,6 C 3,7 km/h (1 Bft)
16.01.2015 21:15 6,5 C 1,5 C 53 % 59 % 1006,3 hPa 0,0 l/m 4,5 km/h (1 Bft) W-SW 247 -2,4 C 5,3 C 4,8 km/h (1 Bft)
16.01.2015 21:20 6,3 C 1,5 C 53 % 59 % 1006,9 hPa 0,0 l/m 4,2 km/h (1 Bft) W-SW 247 -2,6 C 5,3 C 2,7 km/h (1 Bft)
16.01.2015 21:25 5,8 C 1,5 C 55 % 59 % 1006,9 hPa 0,0 l/m 2,9 km/h (1 Bft) NW 315 -2,5 C 5,6 C 6,3 km/h (2 Bft)
16.01.2015 21:30 5,7 C 1,5 C 56 % 59 % 1006,9 hPa 0,0 l/m 1,9 km/h (1 Bft) SW 225 -2,4 C 5,2 C 4,0 km/h (1 Bft)
16.01.2015 21:35 5,7 C 1,5 C 56 % 59 % 1006,9 hPa 0,0 l/m 2,4 km/h (1 Bft) W 270 -2,4 C 5,2 C 2,6 km/h (1 Bft)
16.01.2015 21:40 5,6 C 1,5 C 56 % 59 % 1007,2 hPa 0,0 l/m 2,9 km/h (1 Bft) SW 225 -2,5 C 5,1 C 3,1 km/h (1 Bft)
16.01.2015 21:45 5,5 C 1,5 C 57 % 60 % 1007,2 hPa 0,0 l/m 3,1 km/h (1 Bft) W 270 -2,3 C 4,9 C 7,6 km/h (2 Bft)
16.01.2015 21:50 5,3 C 1,5 C 57 % 61 % 1007,2 hPa 0,0 l/m 3,5 km/h (1 Bft) SW 225 -2,5 C 4,5 C 4,5 km/h (1 Bft)
16.01.2015 21:55 5,1 C 1,5 C 58 % 61 % 1007,2 hPa 0,0 l/m 4,2 km/h (1 Bft) W-NW 292 -2,5 C 4,0 C 4,8 km/h (1 Bft)
16.01.2015 22:00 4,8 C 1,5 C 60 % 63 % 1007,5 hPa 0,0 l/m 4,5 km/h (1 Bft) SW 225 -2,3 C 3,4 C 13,2 km/h (3 Bft)
16.01.2015 22:05 4,8 C 1,4 C 62 % 64 % 1007,5 hPa 0,0 l/m 4,7 km/h (1 Bft) S 180 -1,9 C 3,3 C 6,6 km/h (2 Bft)
16.01.2015 22:10 4,9 C 1,5 C 64 % 66 % 1007,5 hPa 0,0 l/m 6,1 km/h (2 Bft) SW 225 -1,3 C 2,8 C 10,1 km/h (2 Bft)
16.01.2015 22:15 4,8 C 1,5 C 65 % 66 % 1007,5 hPa 0,0 l/m 6,1 km/h (2 Bft) W-SW 247 -1,2 C 2,8 C 9,3 km/h (2 Bft)
16.01.2015 22:20 4,8 C 1,5 C 66 % 67 % 1007,8 hPa 0,0 l/m 6,4 km/h (2 Bft) W-SW 247 -1,0 C 2,7 C 14,6 km/h (3 Bft)
16.01.2015 22:25 4,5 C 1,5 C 66 % 68 % 1007,8 hPa 0,0 l/m 6,0 km/h (2 Bft) NW 315 -1,3 C 2,7 C 5,0 km/h (1 Bft)
16.01.2015 22:30 4,3 C 1,5 C 67 % 68 % 1007,8 hPa 0,0 l/m 5,5 km/h (1 Bft) SW 225 -1,3 C 2,5 C 10,1 km/h (2 Bft)
16.01.2015 22:35 4,4 C 1,4 C 68 % 69 % 1007,8 hPa 0,0 l/m 6,1 km/h (2 Bft) W 270 -1,0 C 2,2 C 12,6 km/h (3 Bft)
16.01.2015 22:40 4,4 C 1,4 C 68 % 69 % 1007,9 hPa 0,0 l/m 6,4 km/h (2 Bft) W-SW 247 -1,0 C 2,1 C 6,1 km/h (2 Bft)
16.01.2015 22:45 4,2 C 1,4 C 68 % 70 % 1007,9 hPa 0,0 l/m 5,8 km/h (2 Bft) W-SW 247 -1,2 C 2,3 C 5,3 km/h (1 Bft)
16.01.2015 22:50 4,1 C 1,4 C 69 % 71 % 1007,9 hPa 0,0 l/m 6,0 km/h (2 Bft) W 270 -1,1 C 2,1 C 6,0 km/h (2 Bft)
16.01.2015 22:55 3,8 C 1,4 C 69 % 70 % 1007,9 hPa 0,0 l/m 4,7 km/h (1 Bft) W 270 -1,4 C 2,4 C 5,5 km/h (1 Bft)
16.01.2015 23:00 3,8 C 1,4 C 70 % 71 % 1008,7 hPa 0,0 l/m 3,5 km/h (1 Bft) W-SW 247 -1,2 C 2,7 C 4,8 km/h (1 Bft)
16.01.2015 23:05 3,6 C 1,4 C 70 % 71 % 1008,7 hPa 0,0 l/m 4,5 km/h (1 Bft) W-SW 247 -1,3 C 2,0 C 4,2 km/h (1 Bft)
16.01.2015 23:10 3,6 C 1,4 C 70 % 71 % 1008,7 hPa 0,0 l/m 5,0 km/h (1 Bft) SW 225 -1,3 C 1,7 C 3,7 km/h (1 Bft)
16.01.2015 23:15 3,6 C 1,4 C 69 % 71 % 1008,7 hPa 0,0 l/m 5,6 km/h (1 Bft) W-SW 247 -1,5 C 1,3 C 10,0 km/h (2 Bft)
16.01.2015 23:20 3,5 C 1,4 C 70 % 71 % 1008,9 hPa 0,0 l/m 5,1 km/h (1 Bft) W-SW 247 -1,4 C 1,4 C 4,8 km/h (1 Bft)
16.01.2015 23:25 3,5 C 1,4 C 70 % 72 % 1008,9 hPa 0,0 l/m 4,5 km/h (1 Bft) W-SW 247 -1,4 C 1,6 C 2,6 km/h (1 Bft)
16.01.2015 23:30 3,4 C 1,4 C 71 % 72 % 1008,9 hPa 0,0 l/m 4,3 km/h (1 Bft) S 180 -1,3 C 1,6 C 4,0 km/h (1 Bft)
16.01.2015 23:35 3,5 C 1,4 C 72 % 73 % 1008,9 hPa 0,0 l/m 4,5 km/h (1 Bft) W-SW 247 -1,1 C 1,7 C 4,7 km/h (1 Bft)
16.01.2015 23:40 3,6 C 1,4 C 73 % 73 % 1008,9 hPa 0,0 l/m 4,8 km/h (1 Bft) SW 225 -0,8 C 1,8 C 4,5 km/h (1 Bft)
16.01.2015 23:45 3,5 C 1,4 C 72 % 73 % 1008,9 hPa 0,0 l/m 3,9 km/h (1 Bft) W-SW 247 -1,1 C 2,3 C 3,4 km/h (1 Bft)
16.01.2015 23:50 3,6 C 1,5 C 73 % 73 % 1008,9 hPa 0,0 l/m 3,1 km/h (1 Bft) W-SW 247 -0,8 C 2,9 C 3,5 km/h (1 Bft)
16.01.2015 23:55 3,7 C 1,5 C 74 % 73 % 1008,9 hPa 0,0 l/m 2,6 km/h (1 Bft) SW 225 -0,5 C 3,2 C 1,9 km/h (1 Bft)
_ Min-Zeit 06:45 15:30 15:45 16:45 20:35 - 20:55 - - 04:55 06:35 20:55
Minimum _ -1,9 C 1,2 C 49 % 57 % 1006,2 hPa - 0,0 km/h (0 Bft) - - -5,9 C -3,2 C 0,0 km/h (0 Bft)
_ Max-Zeit 15:00 23:55 01:35 07:00 01:55 23:55 22:40 - - 13:55 15:05 22:20
Maximum _ 10,3 C 1,5 C 80 % 78 % 1011,2 hPa 0,0 l/m 6,4 km/h
W-SW (2 Bft)
- - 1,4 C 10,8 C 14,6 km/h
W-SW (3 Bft)
Durchschnitt _ 4,1 C 1,3 C 65 % 68 % 1008,9 hPa #0,0 l/m 1,0 km/h (0 Bft) W-SW - -2,2 C 3,8 C 1,5 km/h (1 Bft)